Orbital Elements at Epoch 2459000.5 (2020-May-31.0) TDB
Reference: JPL 22 (heliocentric ecliptic J2000)
Element | Value | Uncertainty (1-sigma) | Units |
e | .07948886050147175 | 4.1721e-08 | |
a | 2.32352013491544 | 8.3251e-09 | au |
q | 2.138826167038786 | 9.7623e-08 | au |
i | 4.55872392652666 | 4.7445e-06 | deg |
node | 25.24523621123378 | 5.3985e-05 | deg |
peri | 103.741074462973 | 6.1166e-05 | deg |
M | 290.5796633894104 | 3.0149e-05 | deg |
tp | 2459249.960794812351 (2021-Feb-04.46079481) | 0.00010874 | TDB |
period | 1293.653855875241 3.54 | 6.9527e-06 1.904e-08 | d yr |
n | .2782815498636122 | 1.4956e-09 | deg/d |
Q | 2.508214102792095 | 8.9869e-09 | au |
|
| | Orbit Determination Parameters
Additional Information
|